Regional Weather Roundup
Issued by NWS

Home | Current Version | Previous Version | Text Only | Print | Product List | Glossary Off
Versions: 1 2 3 4 5 6 7 8 9 10 11 12 13 14 15 16 17 18 19 20 21 22 23 24 25 26 27 28 29 30 31 32 33 34 35 36 37 38 39 40 41 42 43 44 45 46 47 48 49 50

000
ASUS43 KDMX 120707
RWRIA

WEATHER ROUNDUP FOR IOWA
NATIONAL WEATHER SERVICE DES MOINES IA
200 AM CDT SAT JUL 12 2014

NOTE: "FAIR" INDICATES FEW OR NO CLOUDS BELOW 12,000 FEET WITH NO
SIGNIFICANT WEATHER AND/OR OBSTRUCTIONS TO VISIBILITY.

* - THESE STATIONS ARE NOT NWS STATIONS...THUS NOT UNDER NWS
QUALITY CONTROL.  THEY ALSO DO NOT REPORT WEATHER SUCH
AS PRECIPITATION OR FOG.

IAZ001>003-012>014-020>022-031>034-043>046-120800-
   NORTHWEST IOWA

CITY           SKY/WX    TMP DP  RH WIND       PRES   REMARKS
CARROLL *      CLOUDY    72  70  94 NE6G13    30.02S FOG
CHEROKEE *     TSTM      72  72 100 CALM      30.02S
DENISON *      HVY RAIN  68  68 100 NE18G32   30.01S VSB 1/2
LE MARS *      LGT RAIN  72  72 100 S8        30.01F
ORANGE CITY *  DRIZZLE   72  70  94 S5        30.01F
SHELDON *      MOCLDY    70  70 100 S3        30.02R FOG
SIOUX CITY     HVY RAIN  70  69  97 W6        30.03R FOG
SPENCER        CLOUDY    70  69  97 S7        30.02S FOG
STORM LAKE *   LGT RAIN  70  70 100 S7        30.03F
$$

IAZ055>058-069>071-079>083-090>094-120800-
   SOUTHWEST IOWA

CITY           SKY/WX    TMP DP  RH WIND       PRES   REMARKS
ATLANTIC *     CLEAR     73  72  94 CALM      29.98F
AUDUBON *      PTCLDY    73  72  94 CALM      30.01F FOG
CLARINDA *     CLEAR     75  73  94 S7        30.01S
COUNCIL BLFS *   N/A     75  75 100 S5        29.97F
CRESTON *      CLEAR     75  73  94 S8        30.00F
HARLAN  *      PTCLDY    73  73 100 NE3       30.03S
LAMONI         MOCLDY    76  73  91 S10       30.01F
RED OAK *      CLOUDY    77  75  94 S9        29.98S
SHENANDOAH *     N/A     77  72  83 SW5       29.99S
$$

IAZ047>049-059>061-072>074-084-120800-
   CENTRAL IOWA

CITY           SKY/WX    TMP DP  RH WIND       PRES   REMARKS
AMES           CLOUDY    70  70 100 SE3       30.00F FOG
ANKENY *       DRIZZLE   72  72 100 N6        30.01S
CHARITON *     CLOUDY    73  73 100 SE5       30.00F
DES MOINES     CLOUDY    75  72  90 E5        29.99F THUNDER
GRINNELL*      CLOUDY    70  68  94 E5        30.03F FOG
KNOXVILLE *    CLOUDY    73  72  94 SE3       29.99F FOG
MARSHALLTOWN   MOCLDY    71  70  96 SE6       30.01F
PELLA *        CLOUDY    72  72 100 SE5       30.01F FOG
PERRY *        MOCLDY    72  70  94 E3        30.00F FOG
$$

IAZ004>006-015-016-023>025-035-036-120800-
   NORTH CENTRAL IOWA

CITY           SKY/WX    TMP DP  RH WIND       PRES   REMARKS
ALGONA *       CLEAR     70  70 100 S6        30.02F FOG
CLARION *      PTCLDY    70  70 100 E3        30.02F FOG
ESTHERVILLE    PTCLDY    67  67 100 CALM      30.00F FOG
FORT DODGE *   CLOUDY    70  68  94 S3        30.03S
MASON CITY     PTCLDY    65  65 100 S3        30.04F FOG
FOREST CITY *  CLEAR     64  64 100 SE3       30.02F FOG
IOWA FALLS *   CLOUDY    68  66  94 CALM      30.03F FOG
$$

IAZ007>011-017>019-026>030-037>042-050>054-066-120800-
   NORTHEAST IOWA

CITY           SKY/WX    TMP DP  RH WIND       PRES   REMARKS
CEDAR RAPIDS   MOCLDY    72  68  87 S6        30.02F
CHARLES CITY * PTCLDY    68  66  94 S5        30.03F FOG
CLINTON *      MOCLDY    72  64  78 S7        30.06F
DECORAH *        N/A    N/A N/A N/A MISG        N/A
DUBUQUE        MOCLDY    70  66  87 S6        30.05F
MONTICELLO *   PTCLDY    70  68  94 E3        30.03F
OELWEIN *      MOCLDY    68  68 100 SE3       30.04F
WATERLOO       MOCLDY    72  68  87 S5        30.01F
$$

IAZ064-065-067-068-078-120800-
   EAST CENTRAL IOWA

CITY           SKY/WX    TMP DP  RH WIND       PRES   REMARKS
DAVENPORT      MOCLDY    74  66  76 S10       30.04F
IOWA CITY      CLOUDY    73  70  90 CALM      30.03F
MT. PLEASANT * MOCLDY    73  72  94 S5        30.02F
MUSCATINE *    MOCLDY    73  70  88 CALM      30.02F
QUAD CITIES    PTCLDY    73  67  81 CALM      30.02F
$$

IAZ062-063-075>077-085>089-095>099-120800-
   SOUTHEAST IOWA

CITY           SKY/WX    TMP DP  RH WIND       PRES   REMARKS
BURLINGTON     MOCLDY    75  71  87 S6        30.03F
FAIRFIELD *    CLOUDY    73  70  88 S7        30.02F
FORT MADISON * CLEAR     77  73  88 S8        30.03F
KEOKUK *       CLEAR     77  72  83 S5        30.02F
OSKALOOSA *      N/A     72  70  94 S5        30.01F FOG
CENTERVILLE *  CLEAR     73  73 100 S3        30.03F
OTTUMWA        CLOUDY    72  70  93 SE6       30.01F FOG
WASHINGTON *   CLEAR     73  72  94 SE5       30.02F
$$

ABBREVIATIONS USED IN REMARKS
   TC - TEMPERATURES IN CELSIUS
  WCI - WIND CHILL INDEX
   HX - HEAT INDEX
  VSB - VISIBILITY
$$



USA.gov is the U.S. government's official web portal to all federal, state and local government web resources and services.